Regional Weather Roundup
Issued by NWS

Home | Current Version | Previous Version | Graphics & Text | Print | Product List | Glossary On
Versions: 1 2 3 4 5 6 7 8 9 10 11 12 13 14 15 16 17 18 19 20 21 22 23 24 25 26 27 28 29 30 31 32 33 34 35 36 37 38 39 40 41 42 43 44 45 46 47 48 49 50
000
ASUS43 KIND 270300
RWRIN

WEATHER ROUNDUP FOR INDIANA
NATIONAL WEATHER SERVICE INDIANAPOLIS IN
1100 PM EDT MON JUN 26 2017

NOTE: "FAIR" INDICATES FEW OR NO CLOUDS BELOW 12,000 FEET WITH NO
SIGNIFICANT WEATHER AND/OR OBSTRUCTIONS TO VISIBILITY.

* - STATION DOES NOT REPORT WEATHER SUCH AS PRECIPITATION OR FOG.

+ - STATION NOT QUALITY CONTROLLED BY THE NATIONAL WEATHER SERVICE.
    USE DATA WITH CAUTION...ESPECIALLY DEWPOINT AND RELATIVE
    HUMIDITY OBSERVATIONS.

INZ001>003-010>013-019-020-270400-
NORTHWEST INDIANA

CITY           SKY/WX    TMP DP  RH WIND       PRES   REMARKS
GARY /AIRPORT/ PTCLDY    63  41  45 NW14      30.08R
KNOX *+        MOCLDY    54  45  71 CALM      30.07R
MICHIGAN CITY+ MOCLDY    61  45  55 NW8       30.07R
MONTICELLO +   CLOUDY    60  49  67 N8        30.07R

$$

LMZ046-743>745-270400-
SOUTHERN LAKE MICHIGAN

STATION/POSITION TIME  TEMP    WIND        PRES    WAVE
                       AIR SEA DIR/SP/G            HT
                 (UTC) (F)     (DEG/KT/KT) (MB)    (FT)
BURNS HARBOR     0240   63     340/ 15/ 20 1018.3R
MICHIGAN CITY    0230   62     330/ 17/ 18   N/A
5NW MICH CITY    0250   63 65  330/ 14/ 17   N/A     5

$$

INZ004-005-014>016-021>024-270400-
NORTH CENTRAL INDIANA

CITY           SKY/WX    TMP DP  RH WIND       PRES   REMARKS
GOSHEN         MOCLDY    54  45  71 W7        30.06R
PERU/GRISSOM   LGT RAIN  57  55  94 W7        30.05S
SOUTH BEND     PTCLDY    55  47  74 W5        30.07R

$$

INZ006>009-017-018-025>027-270400-
NORTHEAST INDIANA

CITY           SKY/WX    TMP DP  RH WIND       PRES   REMARKS
FORT WAYNE     CLOUDY    57  53  86 W8        30.05R
KENDALLVILLE + MOCLDY    58  44  60 NW6       30.05R

$$

INZ028-029-035-036-043>045-051>053-270400-
WEST CENTRAL INDIANA

CITY           SKY/WX    TMP DP  RH WIND       PRES   REMARKS
CRAWFORDSVL +  PTCLDY    53  53 100 SW3       30.08R
GREENCASTLE +  CLEAR     55  50  82 CALM      30.10R
LAFAYETTE      CLEAR     54  53  97 W3        30.07R
TERRE HAUTE    CLEAR     57  51  80 CALM      30.10R

$$

INZ030>032-037>040-046>048-054>057-064-065-270400-
CENTRAL INDIANA

CITY           SKY/WX    TMP DP  RH WIND       PRES   REMARKS
GREENWOOD *+   MOCLDY    58  49  73 SW3       30.09
INDIANAPOLIS   MOCLDY    57  52  83 SW7       30.08R
-EAGLE CREEK   CLOUDY    57  52  83 SW6       30.07R
KOKOMO +       PTCLDY    56  53  90 W6        30.07S
MT COMFORT *+  CLEAR     55  52  88 SW3       30.07S
SHELBYVILLE    PTCLDY    58  50  75 SW3       30.08R

$$

INZ033-034-041-042-049-050-058-059-270400-
EAST CENTRAL INDIANA

CITY           SKY/WX    TMP DP  RH WIND       PRES   REMARKS
MUNCIE         CLEAR     57  51  80 W3        30.06S
RICHMOND +     MOCLDY    55  48  76 CALM      30.08S

$$

INZ060-061-067>069-081>083-085>088-270400-
SOUTHWEST INDIANA

CITY           SKY/WX    TMP DP  RH WIND       PRES   REMARKS
EVANSVILLE     PTCLDY    64  52  64 NE3       30.10R
HUNTINGBURG *+ MOCLDY    63  54  72 CALM      30.10S

$$

INZ062-063-066-070>080-084-089>092-270400-
SOUTH CENTRAL AND SOUTHEAST INDIANA

CITY           SKY/WX    TMP DP  RH WIND       PRES   REMARKS
BLOOMINGTON    CLEAR     57  50  77 CALM      30.10R
MADISON *+     CLOUDY    64  45  48 W3        30.11S
SEYMOUR +      MOCLDY    63  52  67 SW3       30.08S

$$




USA.gov is the U.S. government's official web portal to all federal, state and local government web resources and services.